This demonstration page uses our WeatherBlox Daily Observations layout. Learn more.

Hourly Observations for February 21, 2020

Temp ( °F °C ) Dew Point ( °F °C ) Humidity (%) Winds ( mph kmh ) Pressure ( in mb ) Visibility ( mi km ) Precip ( " mm )
12:15 am 00:15 Clear 21 -6 18 -7.8 87 87 SSW 10 17 30.71 1040 10 16.0934 0 0
12:35 am 00:35 Clear 21 -6 18 -7.7 88 88 SSW 13 20 30.71 1040 10 16.0934 0 0
12:55 am 00:55 Clear 21 -6.2 18 -8 87 87 SSW 10 17 30.7 1040 10 16.0934 0 0
1:15 am 01:15 Clear 21 -6.3 18 -8 88 88 SSW 12 19 30.69 1039 10 16.0934 0 0
1:35 am 01:35 Clear 20 -6.6 17 -8.3 88 88 SSW 10 17 30.68 1039 10 16.0934 0 0
1:55 am 01:55 Clear 20 -6.8 17 -8.5 88 88 SSW 12 19 30.67 1039 10 16.0934 0 0
2:15 am 02:15 Clear 19 -7 17 -8.5 89 89 SSW 10 17 30.67 1038 10 16.0934 0 0
2:35 am 02:35 Clear 20 -6.9 17 -8.5 89 89 SSW 10 17 30.66 1038 10 16.0934 0 0
2:55 am 02:55 Clear 19 -7.2 16 -8.7 89 89 SSW 8 13 30.65 1038 10 16.0934 0 0
3:15 am 03:15 Clear 19 -7.2 17 -8.6 90 90 SSW 10 17 30.64 1038 10 16.0934 0 0
3:35 am 03:35 Clear 19 -7.1 17 -8.5 90 90 SSW 9 15 30.63 1037 10 16.0934 0 0
3:55 am 03:55 Clear 19 -7 17 -8.5 89 89 SSW 10 17 30.61 1036 10 16.0934 0 0
4:15 am 04:15 Clear 19 -7 17 -8.4 90 90 SSW 10 17 30.61 1036 10 16.0934 0 0
4:35 am 04:35 Clear 19 -7 17 -8.5 89 89 SSW 9 15 30.6 1036 10 16.0934 0 0
4:55 am 04:55 Clear 20 -6.6 17 -8.1 89 89 SW 9 15 30.58 1036 10 16.0934 0 0
5:15 am 05:15 Clear 20 -6.7 17 -8.3 89 89 SW 9 15 30.58 1036 10 16.0934 0 0
5:35 am 05:35 Clear 20 -6.7 17 -8.3 89 89 SW 10 17 30.57 1035 10 16.0934 0 0
5:55 am 05:55 Clear 20 -6.5 17 -8.1 89 89 SSW 12 19 30.56 1035 10 16.0934 0 0
6:15 am 06:15 Clear 21 -6.2 18 -8 87 87 SSW 9 15 30.55 1034 10 16.0934 0 0
6:35 am 06:35 Clear 21 -6 18 -8 86 86 SW 9 15 30.54 1034 10 16.0934 0 0
6:55 am 06:55 Clear 22 -5.4 19 -7.5 85 85 SW 16 26 30.52 1034 10 16.0934 0 0
7:15 am 07:15 Clear 22 -5.6 18 -7.7 85 85 SW 17 28 30.52 1034 10 16.0934 0 0
7:35 am 07:35 Sunny 22 -5.6 18 -7.6 86 86 SW 18 30 30.52 1034 10 16.0934 0 0
7:55 am 07:55 Sunny 22 -5.6 18 -7.6 86 86 SW 15 24 30.52 1034 10 16.0934 0 0
8:15 am 08:15 Sunny 23 -4.9 19 -7 85 85 SW 18 30 30.51 1033 10 16.0934 0 0
8:35 am 08:35 Sunny 25 -4 20 -6.5 83 83 SW 20 31 30.51 1033 10 16.0934 0 0
8:55 am 08:55 Sunny 26 -3.3 21 -6 82 82 SW 21 33 30.51 1033 10 16.0934 0 0
9:15 am 09:15 Sunny 27 -2.6 22 -5.6 80 80 SW 17 28 30.49 1033 10 16.0934 0 0
9:35 am 09:35 Sunny 29 -1.7 23 -5 78 78 SW 20 31 30.48 1032 10 16.0934 0 0
9:55 am 09:55 Sunny 30 -1.1 24 -4.6 77 77 SW 16 26 30.48 1032 10 16.0934 0 0
10:15 am 10:15 Sunny 31 -0.5 24 -4.2 76 76 SW 18 30 30.47 1032 10 16.0934 0 0
10:35 am 10:35 Sunny 33 0.4 25 -3.7 74 74 SW 16 26 30.45 1031 10 16.0934 0 0
10:55 am 10:55 Sunny 35 1.6 26 -3.5 69 69 SW 16 26 30.43 1030 10 16.0934 0 0
11:15 am 11:15 Sunny 37 2.9 26 -3.2 65 65 SW 14 22 30.41 1030 10 16.0934 0 0
11:35 am 11:35 Sunny 39 4.1 27 -3 60 60 SW 14 22 30.4 1029 10 16.0934 0 0
11:55 am 11:55 Sunny 42 5.3 27 -2.9 56 56 SSW 18 30 30.38 1029 10 16.0934 0 0
12:15 pm 12:15 Sunny 44 6.5 27 -2.8 52 52 SW 16 26 30.35 1028 10 16.0934 0 0
12:35 pm 12:35 Sunny 46 7.6 27 -2.9 48 48 SW 16 26 30.32 1027 10 16.0934 0 0
12:55 pm 12:55 Sunny 47 8.5 26 -3.2 44 44 SW 17 28 30.31 1026 10 16.0934 0 0
1:15 pm 13:15 Sunny 48 9.1 26 -3.4 42 42 SSW 17 28 30.28 1025 10 16.0934 0 0
1:35 pm 13:35 Sunny 50 10 26 -3.6 39 39 SSW 15 24 30.26 1025 10 16.0934 0 0
1:55 pm 13:55 Sunny 51 10.7 25 -3.8 36 36 SSW 15 24 30.24 1024 10 16.0934 0 0
2:15 pm 14:15 Sunny 51 10.8 25 -3.7 36 36 SSW 17 28 30.23 1024 10 16.0934 0 0
2:35 pm 14:35 Sunny 52 11 26 -3.6 36 36 SSW 20 31 30.2 1023 10 16.0934 0 0
2:55 pm 14:55 Sunny 52 11 25 -3.7 36 36 SSW 16 26 30.21 1023 10 16.0934 0 0
3:15 pm 15:15 Sunny 52 11.2 26 -3.6 36 36 S 16 26 30.2 1023 10 16.0934 0 0
3:35 pm 15:35 Sunny 52 11 26 -3.2 37 37 SSW 14 22 30.19 1022 10 16.0934 0 0
3:55 pm 15:55 Sunny 52 11.1 26 -3.2 37 37 SW 13 20 30.19 1022 10 16.0934 0 0
4:15 pm 16:15 Sunny 52 11 26 -3.2 37 37 SSW 13 20 30.2 1023 10 16.0934 0 0
4:35 pm 16:35 Sunny 51 10.8 26 -3.5 37 37 SSW 12 19 30.2 1023 10 16.0934 0 0
4:55 pm 16:55 Sunny 50 10 27 -3 40 40 SSW 14 22 30.2 1023 10 16.0934 0 0
5:15 pm 17:15 Sunny 49 9.7 27 -2.6 42 42 SSW 12 19 30.21 1023 10 16.0934 0 0
5:35 pm 17:35 Sunny 48 9.1 28 -2.5 44 44 SSW 10 17 30.2 1023 10 16.0934 0 0
5:55 pm 17:55 Sunny 47 8.3 27 -2.6 47 47 S 13 20 30.2 1023 10 16.0934 0 0
6:15 pm 18:15 Sunny 45 7.1 27 -2.6 50 50 S 10 17 30.21 1023 10 16.0934 0 0
6:35 pm 18:35 Clear 43 6 28 -2.5 55 55 SSW 13 20 30.22 1023 10 16.0934 0 0
6:55 pm 18:55 Clear 42 5.3 28 -2.2 59 59 SSW 12 19 30.23 1024 10 16.0934 0 0
7:15 pm 19:15 Clear 40 4.6 28 -2.2 62 62 S 8 13 30.24 1024 10 16.0934 0 0
7:35 pm 19:35 Clear 39 3.8 28 -2.2 65 65 S 7 11 30.24 1024 10 16.0934 0 0
7:55 pm 19:55 Clear 38 3.5 28 -2 68 68 S 8 13 30.24 1024 10 16.0934 0 0
8:15 pm 20:15 Clear 37 3 28 -2 70 70 S 8 13 30.25 1024 10 16.0934 0 0
8:35 pm 20:35 Clear 37 2.8 29 -1.6 73 73 SSW 12 19 30.25 1024 10 16.0934 0 0
8:55 pm 20:55 Clear 37 3 30 -1.2 74 74 SSW 9 15 30.25 1024 10 16.0934 0 0
9:15 pm 21:15 Clear 37 2.5 30 -1.2 77 77 SSW 9 15 30.25 1024 10 16.0934 0 0
9:35 pm 21:35 Clear 35 1.8 29 -1.5 79 79 SSW 9 15 30.26 1025 10 16.0934 0 0
9:55 pm 21:55 Clear 36 2 30 -0.9 81 81 SW 8 13 30.25 1024 10 16.0934 0 0
10:15 pm 22:15 Clear 35 1.6 30 -1 83 83 SSW 7 11 30.25 1024 10 16.0934 0 0
10:35 pm 22:35 Clear 34 1.1 30 -1.1 85 85 SSW 7 11 30.25 1025 10 16.0934 0 0
10:55 pm 22:55 Clear 34 1.1 30 -1 86 86 SSW 8 13 30.24 1024 10 16.0934 0 0
11:15 pm 23:15 Clear 33 0.3 29 -1.5 88 88 SW 6 9 30.24 1024 10 16.0934 0 0
11:35 pm 23:35 Clear 33 0.6 30 -1 89 89 SW 5 7 30.23 1024 10 16.0934 0 0
11:55 pm 23:55 Clear 33 0.7 31 -0.8 90 90 SSW 8 13 30.23 1024 10 16.0934 0 0

Powered by AerisWeather